Location: Ferchesar
(52.6477°N, 12.4298°E)
Time: 08:03:28
(UTC+01:00)

S-56A Canister/Altair - Pass Details

Date: 16 December 2021
Orbit: 633 x 2499 km, 38.9° (Epoch: 19 January)

Event Time Altitude Azimuth Distance (km) Brightness Sun altitude
Rises 21:04:46 0° 239° (WSW) 6,151 12.5 -44.9°
Reaches altitude 10° 21:09:17 10° 233° (SW) 5,056 11.9 -45.6°
Enters shadow 21:17:02 31° 209° (SSW) 3,367 10.6 -46.6°
Maximum altitude 21:21:49 40° 172° (S) 2,792 - -47.3°
Drops below altitude 10° 21:31:19 10° 109° (ESE) 3,852 - -48.6°
Sets 21:34:15 0° 101° (ESE) 4,592 - -48.9°
